Weather in Polyanovo

Russia / Novosibirsk Oblast     54°33′37″N   75°54′18″E
temp.,
°C
wind,
m/s
gust,
m/s
humid.,
%
clouds,
%
prec.,
mm/h
press.,
hPa
HPBL,
m
7 march, sun
sun701:00−13w46917 0.0 101383
04:00−16wsw45910 0.0 101452
07:00−16wsw44909 0.0 101648
10:00−15sw4690100 0.0 1017125
13:00−11sw478577 0.0 1019251
16:00−8ssw4686100 0.0 1018270
19:00−8se4792100 0.0 1017162
22:00−5sse71495100 0.1 1014433
8 march, mon
mon801:00−2s91593100 0.8 1010630
04:000ssw91691100 0.1 1008730
07:00−2s81491100 0.1 1006529
10:00−2ssw91589100 0.0 1003657
13:00−2sw91594100 0.1 1003685
16:00−5wnw91294100 1.6 1005555
19:00−9wnw61389100 1.7 1011478
22:00−12w6139249 0.0 1016311
9 march, tue
tue901:00−14wsw5119154 0.0 1019259
04:00−16sw5109030 0.0 1019155
07:00−16ssw6129017 0.0 1019256
10:00−14ssw7128929 0.0 1020340
13:00−11sw7128844 0.0 1020438
16:00−9sw7118987 0.0 1020502
19:00−10ssw5109194 0.0 1019323
22:00−13ssw5109281 0.0 1019171
10 march, wed
wed1001:00−14ssw5109190 0.0 1017156
04:00−12ssw5108699 0.0 1015239
07:00−12s4884100 0.0 1013184
10:00−12s4885100 0.0 1011218
13:00−9sse4689100 0.0 1009268
16:00−7ese4594100 0.2 1004316
19:00−6ene3496100 6.6 999216
22:00−7nw4696100 1.7 997171
11 march, thu
thu1101:00−10w6109499 1.8 1000264
04:00−10sw6139495 0.1 1003359
07:00−9sw7159398 0.3 1004472
10:00−10sw91686100 0.1 1006783
13:00−9sw111687100 0.2 10091035
16:00−10wsw101686100 0.1 1012911
19:00−11wsw61290100 0.1 1015594
22:00−12ssw41094100 0.1 1016320